New Delhi, India

8:33 AM IST on February 11, 2016 (GMT +0530)
Indira Gandhi International

Weather History for VIDP - September, 2012

Change the Weather History Date:

Saturday, September 22, 2012

  Actual Average Record
Temperature  
Mean Temperature 85 °F -  
Max Temperature 95 °F 89 °F 104 °F (2007)
Min Temperature 75 °F 69 °F 69 °F (2008)
Cooling Degree Days 20    
Growing Degree Days 35 (Base 50)    
Moisture  
Dew Point 69 °F    
Average Humidity 63    
Maximum Humidity 89    
Minimum Humidity 36    
Precipitation  
Precipitation 0.00 in - - ()
Sea Level Pressure  
Sea Level Pressure 29.75 in    
Wind  
Wind Speed 4 mph ()    
Max Wind Speed 13 mph    
Max Gust Speed -    
Visibility 2.1 miles    
Events      
Averages and records for this station are not official NWS values.
T = Trace of Precipitation, MM = Missing Value Source: Averaged Metar Reports

Daily Weather History Graph

Daily Weather History Graph

Search for Another Location

Airport or City:

Trip Planner

Search our weather history database for the weather conditions in past years. The results will help you decide how hot, cold, wet, or windy it might be!

Date:

Astronomy

Sep. 22, 2012 Rise Set
Actual Time 6:09 AM IST 6:17 PM IST
Civil Twilight 5:46 AM IST 6:41 PM IST
Nautical Twilight 5:18 AM IST 7:08 PM IST
Astronomical Twilight 4:51 AM IST 7:36 PM IST
Moon 12:33 PM IST (9/22) 11:21 PM IST (9/22)
Length of Visible Light 12h 55m
Length of Day
12h 07m
Waxing Crescent, 44% of the Moon is Illuminated
Sep 22
Waxing Crescent
Sep 23
First Quarter
Sep 30
Full
Oct 8
Last Quarter
Oct 15
New

Hourly Weather History & Observations

Time (IST) Temp. Heat Index Dew Point Humidity Pressure Visibility Wind Dir Wind Speed Gust Speed Precip Events Conditions
12:00 AM 77.0 °F - 71.6 °F 83% 29.74 in 1.9 mi Calm Calm - N/A   Mist
12:30 AM 77.0 °F - 71.6 °F 83% 29.74 in 1.9 mi Calm Calm - N/A   Mist
1:00 AM 77.0 °F - 71.6 °F 83% 29.74 in 1.9 mi Calm Calm - N/A   Mist
1:30 AM 77.0 °F - 71.6 °F 83% 29.74 in 1.6 mi Calm Calm - N/A   Mist
2:00 AM 77.0 °F - 71.6 °F 83% 29.74 in 1.6 mi Calm Calm - N/A   Mist
2:30 AM 75.2 °F - 71.6 °F 89% 29.74 in 1.7 mi Calm Calm - N/A   Mist
3:30 AM 75.2 °F - 71.6 °F 89% 29.71 in 1.9 mi West 4.6 mph - N/A   Mist
4:00 AM 75.2 °F - 71.6 °F 89% 29.74 in 1.9 mi WSW 3.5 mph - N/A   Mist
4:30 AM 75.2 °F - 71.6 °F 89% 29.74 in 1.9 mi WSW 3.5 mph - N/A   Mist
5:00 AM 75.2 °F - 71.6 °F 89% 29.74 in 1.9 mi West 3.5 mph - N/A   Mist
5:30 AM 75.2 °F - 69.8 °F 83% 29.74 in 1.9 mi WSW 3.5 mph - N/A   Mist
6:00 AM 75.2 °F - 69.8 °F 83% 29.74 in 1.6 mi Calm Calm - N/A   Mist
6:30 AM 75.2 °F - 69.8 °F 83% 29.77 in 1.6 mi WSW 3.5 mph - N/A   Mist
7:00 AM 75.2 °F - 69.8 °F 83% 29.77 in 1.4 mi West 2.3 mph - N/A   Mist
7:30 AM 77.0 °F - 69.8 °F 78% 29.77 in 1.4 mi WSW 2.3 mph - N/A   Mist
8:00 AM 77.0 °F - 69.8 °F 78% 29.77 in 1.4 mi West 2.3 mph - N/A   Mist
9:00 AM 82.4 °F 87.2 °F 71.6 °F 70% 29.80 in 1.6 mi Calm Calm - N/A   Haze
9:30 AM 86.0 °F 91.8 °F 71.6 °F 62% 29.80 in 1.9 mi West 6.9 mph - N/A   Haze
10:00 AM 86.0 °F 91.8 °F 71.6 °F 62% 29.80 in 1.9 mi West 6.9 mph - N/A   Haze
10:30 AM 87.8 °F 92.6 °F 69.8 °F 55% 29.83 in 1.9 mi WNW 5.8 mph - N/A   Haze
11:00 AM 89.6 °F 94.7 °F 69.8 °F 52% 29.83 in 2.2 mi West 6.9 mph - N/A   Haze
11:30 AM 89.6 °F 94.7 °F 69.8 °F 52% 29.83 in 2.2 mi West 8.1 mph - N/A   Haze
12:00 PM 91.4 °F 96.8 °F 69.8 °F 49% 29.80 in 2.5 mi WNW 8.1 mph - N/A   Haze
12:30 PM 91.4 °F 95.4 °F 68.0 °F 46% 29.80 in 2.5 mi West 10.4 mph - N/A   Haze
1:00 PM 93.2 °F 97.7 °F 68.0 °F 44% 29.77 in 2.5 mi West 8.1 mph - N/A   Haze
1:30 PM 93.2 °F 97.7 °F 68.0 °F 44% 29.77 in 2.5 mi WNW 10.4 mph - N/A   Haze
2:00 PM 93.2 °F 96.2 °F 66.2 °F 41% 29.74 in 2.5 mi WNW 10.4 mph - N/A   Haze
2:30 PM 93.2 °F 96.2 °F 66.2 °F 41% 29.74 in 2.5 mi WNW 11.5 mph - N/A   Haze
3:00 PM 95.0 °F 97.0 °F 64.4 °F 36% 29.74 in 2.5 mi WNW 12.7 mph - N/A   Haze
3:30 PM 95.0 °F 97.0 °F 64.4 °F 36% 29.74 in 2.8 mi WNW 10.4 mph - N/A   Haze
4:00 PM 93.2 °F 94.9 °F 64.4 °F 38% 29.71 in 2.8 mi WNW 11.5 mph - N/A   Haze
4:30 PM 93.2 °F 94.9 °F 64.4 °F 38% 29.71 in 3.1 mi WNW 11.5 mph - N/A   Haze
5:00 PM 93.2 °F 94.9 °F 64.4 °F 38% 29.71 in 3.1 mi NW 12.7 mph - N/A   Haze
5:30 PM 91.4 °F 93.2 °F 64.4 °F 41% 29.71 in 3.1 mi WNW 10.4 mph - N/A   Haze
6:00 PM 91.4 °F 93.2 °F 64.4 °F 41% 29.71 in 3.1 mi NW 9.2 mph - N/A   Haze
6:30 PM 89.6 °F 91.1 °F 64.4 °F 43% 29.71 in 3.1 mi NW 8.1 mph - N/A   Haze
7:00 PM 87.8 °F 90.4 °F 66.2 °F 49% 29.71 in 2.2 mi West 5.8 mph - N/A   Haze
7:30 PM 87.8 °F 90.4 °F 66.2 °F 49% 29.71 in - NW 4.6 mph - N/A   Haze
8:00 PM 86.0 °F 89.4 °F 68.0 °F 55% 29.71 in - West 3.5 mph - N/A   Haze
8:30 PM 86.0 °F 89.4 °F 68.0 °F 55% 29.74 in - West 3.5 mph - N/A   Haze
9:30 PM 84.2 °F 88.4 °F 69.8 °F 62% 29.74 in 1.9 mi Calm Calm - N/A   Haze
10:00 PM 84.2 °F 88.4 °F 69.8 °F 62% 29.74 in 1.9 mi Calm Calm - N/A   Haze
10:30 PM 82.4 °F 86.3 °F 69.8 °F 66% 29.74 in 1.9 mi WSW 3.5 mph - N/A   Haze
11:00 PM 80.6 °F 84.6 °F 71.6 °F 74% 29.74 in 1.9 mi West 3.5 mph - N/A   Haze
11:30 PM 78.8 °F - 71.6 °F 78% 29.74 in 1.9 mi WSW 2.3 mph - N/A   Mist